Find Kupon

NORAD ID: 25045 Int'l Des: 1997-070 Owner: TSBM Country: RU operational
HEOCIRCULARGSO

当前视图

正在加载3D地球...

About Kupon

Kupon (NORAD 25045) is a satellite launched Nov 12, 1997 by TSBM of RU. It operates in HEO, CIRCULAR, GSO orbit with a mass of 2300.00 kg.

即将过境

Passes for default location (London). Set your location on the main map for personalized predictions.

高度历史

Loading altitude history...

两行轨道根数

1 25045U 97070A 26194.92769575 -.00000240 00000-0 00000+0 0 9997
2 25045 14.5475 354.4220 0004255 304.8464 55.1414 1.00247356104912
Epoch: Jul 13, 2026 • Age: 16 hours

当前状态

高度 35787.6 km
远地点 / 近地点 N/A
速度 3.07 km/s
星下点 -12.75°S, 87.74°E
发射日期 Nov 12, 1997
运行时间 28.6 years
类型 other

技术详情

分类 Payload
质量 2300.00 kg
干质量 2200.00 kg
总质量 2300.00 kg
长度 5.00 m
直径 2.00 m
跨度 10.00 m
形状 Box + 2 Pan
制造商 NPOL
平台类型 Kupon
阶段状态 In Orbit
所有者/国家 TSBM/RU

Most Searched